DW4277 Weather Reports


Display with metric or nautical units.
time (UTC)temp
F
wind
direction
speed
MPH
gust
MPH
rain 1hr
in
rain 24hr
in
rain mn
in
humidity
%
barometer
mb
20260903004604 70 338 0.0 0.0 0.00 0.00 0.00 56 1018.4
20260903003109 70 338 0.0 0.0 0.00 0.00 0.00 56 1018.3
20260903001601 70 338 0.0 0.0 0.00 0.00 0.00 57 1018.4
20260903000055 70 338 0.0 0.0 0.00 0.00 0.00 57 1018.4
20260902234557 70 338 0.0 0.0 0.00 0.00 0.00 57 1018.4
20260902233053 70 343 0.0 0.0 0.00 0.00 0.00 56 1018.4
20260902231552 71 345 0.0 0.0 0.00 0.00 0.00 56 1018.3
20260902230058 71 345 0.0 0.0 0.00 0.00 0.00 55 1018.3
20260902224552 71 345 0.0 0.0 0.00 0.00 0.00 55 1018.3
20260902223046 71 345 0.0 0.0 0.00 0.00 0.00 54 1018.2
20260902221543 72 345 1.0 16.0 0.00 0.00 0.00 53 1018.2
20260902220043 72 337 8.0 21.0 0.00 0.00 0.00 52 1018.0
20260902214544 72 346 12.0 22.0 0.00 0.00 0.00 52 1017.9
20260902213140 72 344 9.0 21.0 0.00 0.00 0.00 52 1017.8
20260902211538 72 344 11.0 18.0 0.00 0.00 0.00 53 1017.9
20260902210038 71 321 1.0 15.0 0.00 0.00 0.00 54 1017.8
20260902204540 71 294 0.0 12.0 0.00 0.00 0.00 57 1017.7
20260902203036 71 292 0.0 12.0 0.00 0.00 0.00 59 1017.5
20260902201545 70 304 7.0 17.0 0.00 0.00 0.00 60 1017.5
20260902200039 71 230 2.0 11.0 0.00 0.00 0.00 62 1017.5
20260902194548 71 230 0.0 12.0 0.00 0.00 0.00 65 1017.5
20260902193035 72 224 0.0 6.0 0.00 0.00 0.00 65 1017.6
20260902191534 73 224 0.0 0.0 0.00 0.00 0.00 64 1017.6
20260902190034 73 224 0.0 0.0 0.00 0.00 0.00 61 1017.4
20260902184539 74 224 0.0 0.0 0.00 0.00 0.00 60 1017.2
20260902183033 75 224 0.0 0.0 0.00 0.00 0.00 60 1017.1
20260902181533 75 224 0.0 0.0 0.00 0.00 0.00 59 1017.0
20260902180033 76 224 0.0 0.0 0.00 0.00 0.00 57 1017.0
20260902174532 77 224 0.0 0.0 0.00 0.00 0.00 56 1016.9
20260902173031 77 224 0.0 0.0 0.00 0.00 0.00 54 1016.7
20260902171531 78 224 0.0 11.0 0.00 0.00 0.00 53 1016.6
20260902170029 79 224 1.0 18.0 0.00 0.00 0.00 52 1016.7
20260902164530 80 215 9.0 21.0 0.00 0.00 0.00 50 1016.8
20260902163028 80 219 5.0 18.0 0.00 0.00 0.00 49 1016.9
20260902161536 80 224 8.0 19.0 0.00 0.00 0.00 49 1016.9
20260902160026 81 192 5.0 17.0 0.00 0.00 0.00 46 1016.9
20260902154525 81 210 4.0 15.0 0.00 0.00 0.00 44 1017.0
20260902153025 81 187 2.0 14.0 0.00 0.00 0.00 43 1017.0
20260902151528 81 171 2.0 15.0 0.00 0.00 0.00 44 1016.9
20260902150023 82 167 8.0 14.0 0.00 0.00 0.00 43 1017.0
20260902144522 82 182 7.0 18.0 0.00 0.00 0.00 42 1017.0
20260902143021 82 96 0.0 0.0 0.00 0.00 0.00 42 1017.0
20260902141519 82 117 4.0 13.0 0.00 0.00 0.00 42 1017.2
20260902140019 82 145 0.0 13.0 0.00 0.00 0.00 41 1017.3
20260902134526 82 119 0.0 0.0 0.00 0.00 0.00 42 1017.4
20260902133015 81 114 0.0 13.0 0.00 0.00 0.00 43 1017.5
20260902131514 82 152 0.0 10.0 0.00 0.00 0.00 41 1017.7
20260902130014 83 20 0.0 19.0 0.00 0.00 0.00 41 1017.7
20260902124515 85 284 5.0 20.0 0.00 0.00 0.00 40 1017.7
20260902123015 84 296 0.0 22.0 0.00 0.00 0.00 40 1018.0
20260902121509 84 221 6.0 15.0 0.00 0.00 0.00 40 1018.2
20260902120005 83 262 0.0 15.0 0.00 0.00 0.00 41 1018.4
20260902114505 82 235 6.0 15.0 0.00 0.00 0.00 42 1018.5
20260902113105 81 168 0.0 19.0 0.00 0.00 0.00 44 1018.6
20260902111557 81 186 11.0 16.0 0.00 0.00 0.00 44 1018.7
20260902110058 81 119 0.0 10.0 0.00 0.00 0.00 45 1019.0
20260902104615 80 170 4.0 10.0 0.00 0.00 0.00 44 1019.2
20260902103049 81 282 0.0 0.0 0.00 0.00 0.00 46 1019.4
20260902101546 80 354 0.0 7.0 0.00 0.00 0.00 48 1019.5
20260902100101 78 354 0.0 0.0 0.00 0.00 0.00 50 1019.8
20260902094540 78 354 0.0 0.0 0.00 0.00 0.00 50 1020.0
20260902093036 76 354 0.0 7.0 0.00 0.00 0.00 53 1020.1
20260902091533 76 354 0.0 0.0 0.00 0.00 0.00 54 1020.3
20260902090030 74 354 0.0 0.0 0.00 0.00 0.00 57 1020.2
20260902084527 73 354 0.0 0.0 0.00 0.00 0.00 60 1020.1
20260902083022 71 354 0.0 0.0 0.00 0.00 0.00 64 1020.4
20260902081518 70 352 0.0 0.0 0.00 0.00 0.00 66 1020.4
20260902080022 70 352 0.0 0.0 0.00 0.00 0.00 66 1020.4
20260902074516 70 352 0.0 8.0 0.00 0.00 0.00 67 1020.4
20260902073012 69 352 0.0 0.0 0.00 0.00 0.00 69 1020.1
20260902071508 67 352 0.0 0.0 0.00 0.00 0.00 70 1019.9
20260902070007 66 352 0.0 0.0 0.00 0.00 0.00 72 1019.7
20260902064511 65 351 4.0 9.0 0.00 0.01 0.00 77 1019.8
20260902063003 64 349 0.0 0.0 0.00 0.01 0.00 78 1019.7
20260902061502 63 349 0.0 0.0 0.00 0.01 0.00 79 1019.9
20260902060000 62 349 0.0 0.0 0.00 0.01 0.00 79 1019.8
20260902054559 62 345 0.0 0.0 0.00 0.01 0.00 79 1019.8
20260902053057 62 345 0.0 0.0 0.00 0.01 0.00 78 1019.7
20260902051604 62 344 0.0 0.0 0.00 0.01 0.00 79 1019.7
20260902050051 62 348 0.0 0.0 0.00 0.01 0.00 78 1019.7
20260902044550 61 348 0.0 0.0 0.00 0.01 0.00 78 1019.8
20260902043053 61 348 0.0 0.0 0.00 0.01 0.00 78 1019.6
20260902041548 61 348 0.0 0.0 0.00 0.01 0.00 76 1019.6
20260902040047 62 348 0.0 0.0 0.00 0.01 0.00 76 1019.5
20260902034547 62 348 0.0 0.0 0.00 0.01 0.00 75 1019.6
20260902033046 62 348 0.0 0.0 0.00 0.01 0.00 75 1019.6
20260902031546 62 348 0.0 0.0 0.00 0.01 0.00 76 1019.5
20260902030045 62 348 0.0 0.0 0.00 0.01 0.00 76 1019.5
20260902024545 62 348 0.0 0.0 0.00 0.01 0.00 74 1019.4
20260902023046 61 348 0.0 0.0 0.00 0.01 0.00 75 1019.4
20260902021546 62 348 0.0 0.0 0.00 0.01 0.00 76 1019.5
20260902020057 62 348 0.0 0.0 0.00 0.01 0.00 75 1019.4
20260902014549 62 348 0.0 0.0 0.00 0.01 0.00 75 1019.5
20260902013039 62 348 0.0 0.0 0.00 0.01 0.00 75 1019.5
20260902011537 62 348 0.0 0.0 0.00 0.01 0.00 74 1019.5
20260902010035 63 348 0.0 0.0 0.00 0.01 0.00 72 1019.6